When you browse on this site, cookies collect data to enhance your experience and personalize the content and advertising you see.
Visit our Privacy Policy to learn more. By continuing to use the site, you agree to this use of cookies and data.
EN

Hourly Weather Gohana

Today, 26 September, Saturday

Time Temperature Precipitation Wind Pressure Humidity
00:00 +30°C° 0 mm 1 mps 731 mmHg 28%
01:00 +29°C° 0 mm 1 mps 731 mmHg 28%
02:00 +29°C° 0 mm 1 mps 731 mmHg 29%
03:00 +29°C° 0 mm 1 mps 731 mmHg 29%
04:00 +28°C° 0 mm 1 mps 731 mmHg 30%
05:00 +28°C° 0 mm 1 mps 731 mmHg 31%
06:00 +29°C° 0 mm 1 mps 731 mmHg 31%
07:00 +30°C° 0 mm 1 mps 732 mmHg 32%
08:00 +29°C° 0 mm 0 mps 732 mmHg 33%
09:00 +32°C° 0 mm 1 mps 732 mmHg 31%
10:00 +34°C° 0 mm 1 mps 733 mmHg 28%
11:00 +36°C° 0 mm 1 mps 733 mmHg 24%
12:00 +37°C° 0 mm 1 mps 733 mmHg 23%
13:00 +39°C° 0 mm 1 mps 732 mmHg 21%
14:00 +39°C° 0 mm 2 mps 732 mmHg 20%
15:00 +38°C° 0 mm 2 mps 731 mmHg 23%
16:00 +37°C° 0 mm 2 mps 731 mmHg 26%
17:00 +36°C° 0 mm 2 mps 731 mmHg 29%
18:00 +35°C° 0 mm 2 mps 731 mmHg 28%
19:00 +33°C° 0 mm 1 mps 731 mmHg 28%
20:00 +31°C° 0 mm 0 mps 732 mmHg 27%
21:00 +32°C° 0 mm 1 mps 732 mmHg 28%
22:00 +31°C° 0 mm 1 mps 732 mmHg 29%
23:00 +31°C° 0 mm 1 mps 732 mmHg 31%

Tomorrow, 27 September, Sunday

Time Temperature Precipitation Wind Pressure Humidity
00:00 +30°C° 0 mm 1 mps 732 mmHg 33%
01:00 +29°C° 0 mm 1 mps 732 mmHg 36%
02:00 +27°C° 0 mm 0 mps 732 mmHg 38%
03:00 +26°C° 0 mm 0 mps 732 mmHg 39%
04:00 +28°C° 0 mm 1 mps 732 mmHg 41%
05:00 +27°C° 0 mm 1 mps 733 mmHg 42%
06:00 +29°C° 0 mm 1 mps 733 mmHg 43%
07:00 +30°C° 0 mm 1 mps 734 mmHg 44%
08:00 +31°C° 0 mm 2 mps 735 mmHg 45%
09:00 +32°C° 0 mm 2 mps 735 mmHg 41%
10:00 +35°C° 0 mm 2 mps 735 mmHg 38%
11:00 +37°C° 0 mm 2 mps 735 mmHg 35%
12:00 +38°C° 0 mm 2 mps 734 mmHg 30%
13:00 +39°C° 0 mm 2 mps 734 mmHg 25%
14:00 +40°C° 0 mm 2 mps 733 mmHg 20%
15:00 +39°C° 0 mm 2 mps 733 mmHg 23%
16:00 +38°C° 0 mm 2 mps 732 mmHg 25%
17:00 +37°C° 0 mm 2 mps 732 mmHg 28%
18:00 +36°C° 0 mm 2 mps 732 mmHg 28%
19:00 +33°C° 0 mm 1 mps 732 mmHg 28%
20:00 +32°C° 0 mm 1 mps 733 mmHg 29%
21:00 +32°C° 0 mm 1 mps 733 mmHg 30%
22:00 +29°C° 0 mm 0 mps 733 mmHg 31%
23:00 +28°C° 0 mm 0 mps 733 mmHg 33%

Day after tomorrow, 28 September, Monday

Time Temperature Precipitation Wind Pressure Humidity
00:00 +30°C° 0 mm 1 mps 733 mmHg 33%
01:00 +30°C° 0 mm 1 mps 733 mmHg 33%
02:00 +30°C° 0 mm 2 mps 733 mmHg 34%
03:00 +29°C° 0 mm 1 mps 733 mmHg 36%
04:00 +29°C° 0 mm 1 mps 733 mmHg 38%
05:00 +28°C° 0 mm 1 mps 733 mmHg 41%
06:00 +29°C° 0 mm 1 mps 734 mmHg 40%
07:00 +30°C° 0 mm 1 mps 734 mmHg 39%
08:00 +31°C° 0 mm 1 mps 735 mmHg 39%
09:00 +34°C° 0 mm 2 mps 735 mmHg 34%
10:00 +36°C° 0 mm 2 mps 735 mmHg 29%
11:00 +39°C° 0 mm 3 mps 735 mmHg 23%
12:00 +39°C° 0 mm 3 mps 735 mmHg 22%
13:00 +41°C° 0 mm 4 mps 734 mmHg 20%
14:00 +42°C° 0 mm 4 mps 733 mmHg 19%
15:00 +40°C° 0 mm 4 mps 733 mmHg 22%
16:00 +38°C° 0 mm 3 mps 733 mmHg 25%
17:00 +37°C° 0 mm 2 mps 732 mmHg 28%
18:00 +35°C° 0 mm 1 mps 732 mmHg 27%
19:00 +33°C° 0 mm 1 mps 733 mmHg 27%
20:00 +30°C° 0 mm 0 mps 733 mmHg 27%
21:00 +32°C° 0 mm 1 mps 733 mmHg 27%
22:00 +31°C° 0 mm 1 mps 733 mmHg 28%
23:00 +31°C° 0 mm 1 mps 733 mmHg 29%

29 September, Tuesday

Time Temperature Precipitation Wind Pressure Humidity
00:00 +30°C° 0 mm 1 mps 733 mmHg 30%
01:00 +30°C° 0 mm 1 mps 733 mmHg 30%
02:00 +29°C° 0 mm 2 mps 732 mmHg 31%
03:00 +29°C° 0 mm 2 mps 733 mmHg 32%
04:00 +29°C° 0 mm 2 mps 733 mmHg 32%
05:00 +28°C° 0 mm 2 mps 733 mmHg 32%
06:00 +29°C° 0 mm 1 mps 733 mmHg 32%
07:00 +30°C° 0 mm 1 mps 734 mmHg 32%
08:00 +31°C° 0 mm 1 mps 734 mmHg 32%
09:00 +34°C° 0 mm 2 mps 734 mmHg 29%
10:00 +36°C° 0 mm 3 mps 735 mmHg 25%
11:00 +38°C° 0 mm 4 mps 735 mmHg 22%
12:00 +40°C° 0 mm 4 mps 734 mmHg 20%
13:00 +41°C° 0 mm 5 mps 733 mmHg 19%
14:00 +42°C° 0 mm 5 mps 733 mmHg 17%
15:00 +40°C° 0 mm 4 mps 732 mmHg 19%
16:00 +38°C° 0 mm 2 mps 732 mmHg 22%
17:00 +36°C° 0 mm 1 mps 731 mmHg 25%
18:00 +35°C° 0 mm 1 mps 731 mmHg 25%
19:00 +33°C° 0 mm 1 mps 732 mmHg 25%
20:00 +32°C° 0 mm 1 mps 732 mmHg 25%
21:00 +32°C° 0 mm 1 mps 732 mmHg 26%
22:00 +31°C° 0 mm 1 mps 732 mmHg 27%
23:00 +31°C° 0 mm 2 mps 732 mmHg 27%

30 September, Wednesday

Time Temperature Precipitation Wind Pressure Humidity
00:00 +30°C° 0 mm 2 mps 732 mmHg 28%
01:00 +30°C° 0 mm 2 mps 732 mmHg 29%
02:00 +29°C° 0 mm 2 mps 731 mmHg 30%
03:00 +29°C° 0 mm 2 mps 732 mmHg 30%
04:00 +28°C° 0 mm 2 mps 732 mmHg 31%
05:00 +28°C° 0 mm 2 mps 732 mmHg 32%
06:00 +29°C° 0 mm 2 mps 733 mmHg 32%
07:00 +30°C° 0 mm 3 mps 733 mmHg 32%
08:00 +31°C° 0 mm 3 mps 734 mmHg 32%
09:00 +34°C° 0 mm 3 mps 734 mmHg 29%
10:00 +37°C° 0 mm 4 mps 734 mmHg 26%
11:00 +40°C° 0 mm 5 mps 734 mmHg 23%
12:00 +40°C° 0 mm 5 mps 734 mmHg 22%
13:00 +41°C° 0 mm 5 mps 733 mmHg 20%
14:00 +42°C° 0 mm 5 mps 732 mmHg 19%
15:00 +41°C° 0 mm 4 mps 732 mmHg 21%
16:00 +38°C° 0 mm 3 mps 732 mmHg 23%
17:00 +37°C° 0 mm 2 mps 731 mmHg 25%
18:00 +36°C° 0 mm 2 mps 731 mmHg 25%
19:00 +35°C° 0 mm 2 mps 732 mmHg 25%
20:00 +34°C° 0 mm 2 mps 732 mmHg 26%
21:00 +32°C° 0 mm 2 mps 732 mmHg 27%
22:00 +31°C° 0 mm 2 mps 732 mmHg 28%
23:00 +30°C° 0 mm 1 mps 732 mmHg 29%

1 October, Thursday

Time Temperature Precipitation Wind Pressure Humidity
00:00 +30°C° 0 mm 2 mps 732 mmHg 29%
01:00 +30°C° 0 mm 2 mps 732 mmHg 29%
02:00 +30°C° 0 mm 3 mps 731 mmHg 29%
03:00 +29°C° 0 mm 2 mps 732 mmHg 30%
04:00 +29°C° 0 mm 2 mps 732 mmHg 31%
05:00 +28°C° 0 mm 2 mps 732 mmHg 32%
06:00 +29°C° 0 mm 2 mps 732 mmHg 32%
07:00 +30°C° 0 mm 3 mps 733 mmHg 32%
08:00 +33°C° 0 mm 3 mps 734 mmHg 32%
09:00 +35°C° 0 mm 4 mps 734 mmHg 29%
10:00 +37°C° 0 mm 5 mps 734 mmHg 26%
11:00 +40°C° 0 mm 6 mps 734 mmHg 24%
12:00 +41°C° 0 mm 6 mps 733 mmHg 22%
13:00 +41°C° 0 mm 5 mps 732 mmHg 21%
14:00 +42°C° 0 mm 5 mps 732 mmHg 19%
15:00 +41°C° 0 mm 4 mps 731 mmHg 21%
16:00 +39°C° 0 mm 3 mps 731 mmHg 23%
17:00 +37°C° 0 mm 2 mps 731 mmHg 25%
18:00 +36°C° 0 mm 3 mps 731 mmHg 25%
19:00 +35°C° 0 mm 3 mps 731 mmHg 26%
20:00 +34°C° 0 mm 3 mps 731 mmHg 27%
21:00 +33°C° 0 mm 3 mps 731 mmHg 28%
22:00 +31°C° 0 mm 2 mps 731 mmHg 29%
23:00 +30°C° 0 mm 2 mps 731 mmHg 31%
Show more